Regional Weather Roundup
Issued by NWS

Home | Current Version | Previous Version | Text Only | Print | Product List | Glossary On
Versions: 1 2 3 4 5 6 7 8 9 10 11 12 13 14 15 16 17 18 19 20 21 22 23 24 25 26 27 28 29 30 31 32 33 34 35 36 37 38 39 40 41 42 43 44 45 46 47 48 49 50
000
ASUS43 KLSX 031310
RWRMO

WEATHER SUMMARY FOR MISSOURI
NATIONAL WEATHER SERVICE SPRINGFIELD MO
800 AM CDT THU SEP 03 2015

NOTE: "FAIR" INDICATES FEW OR NO CLOUDS BELOW 12,000 FEET WITH NO
       SIGNIFICANT WEATHER AND/OR OBSTRUCTIONS TO VISIBILITY.
       CURRENT SKY AND/OR WEATHER CONDITIONS ARE NOT AVAILABLE FOR
       CHILLICOTHE AND FARMINGTON.

MOZ001>031-035>038-043-044-053-054-031400-
...NORTHERN AND WESTERN MISSOURI...

CITY           SKY/WX    TMP DP  RH WIND       PRES   REMARKS
KANSAS CTY INT PTSUNNY   76  67  73 S13       29.95R
KANSAS C DTWN  SUNNY     77  68  73 S5        29.95R
LEE`S SUMMIT   SUNNY     74  66  76 S9        29.98R
ST JOSEPH      MOSUNNY   75  69  81 S6        29.94R
CHILLICOTHE      N/A     74  70  87 S3        29.97R
KIRKSVILLE     SUNNY     72  68  87 S7        29.99R

$$
MOZ066>068-077>081-088>096-101>105-031400-
...SOUTHWEST MISSOURI...

CITY           SKY/WX    TMP DP  RH WIND       PRES   REMARKS
SPRINGFIELD    SUNNY     72  66  81 S8        30.03R
JOPLIN         SUNNY     72  67  84 S7        30.02R

$$
MOZ032>034-039>042-045>050-055>058-069>072-031400-
...CENTRAL MISSOURI...

CITY           SKY/WX    TMP DP  RH WIND       PRES   REMARKS
COLUMBIA       PTSUNNY   72  69  90 S6        30.01R
JEFFERSON CITY PTSUNNY   73  68  84 SE6       30.01R
ROLLA          MOSUNNY   73  68  84 S7        30.03R
SEDALIA        MOSUNNY   73  67  81 S8        30.01R
WHITEMAN AFB   MOSUNNY   71  68  90 SW7       29.98R
WARRENSBURG    SUNNY     72  66  83 S3        29.98R
OSAGE BEACH    SUNNY     70  64  83 SE3       30.03R

$$
MOZ051-052-059>065-031400-
...EAST CENTRAL MISSOURI...

CITY           SKY/WX    TMP DP  RH WIND       PRES   REMARKS
ST LOUIS INTL  MOSUNNY   79  68  69 CALM      30.03R
SPIRIT OF STL  PTSUNNY   76  72  87 CALM      30.01R
ST CHARLES     MOSUNNY   72  71  97 CALM      30.01R FOG

$$
MOZ072>076-082>087-097>100-106>115-031400-
...SOUTH CENTRAL AND SOUTHEAST MISSOURI...

CITY           SKY/WX    TMP DP  RH WIND       PRES   REMARKS
CAPE GIRARDEAU SUNNY     72  69  90 CALM      30.04R FOG
FARMINGTON     SUNNY     70  70 100 CALM      30.08R
POPLAR BLUFF   MOSUNNY   72  69  90 CALM      30.03R FOG
WEST PLAINS    SUNNY     70  66  87 CALM      30.07R

$$



USA.gov is the U.S. government's official web portal to all federal, state and local government web resources and services.